ワイズ彗星

P/2010 N1 ( WISE )

English version
Home page
Updated on September 3, 2011

---------------------------------------------------------------------

・ プロフィール

発見日 2010年7月5日
発見光度
発見者 Wide Field Infrared Survey Explorer (NASA)

・ 軌道要素

Epoch 2010 Sept. 1.0 TT = JDT 2455440.5
T 2010 Aug. 16.15323 TT                                 MPC
q   1.4945194            (2000.0)            P               Q
n   0.17169881     Peri.  153.49663     -0.04713472     +0.97766538
a   3.2059582      Node   113.21000     -0.95146685     +0.01848364
e   0.5338307      Incl.   12.87647     -0.30412030     -0.20935318
P   5.74

・ 光度変化

        m1 = 17.0 + 5 logΔ + 10.0 log r

---------------------------------------------------------------------

軌道要素はM.P.E.C. 2010-N48に掲載されたものです。
光度グラフはComet for Windowsで作成したものです。

---------------------------------------------------------------------

Copyright(C) Seiichi Yoshida (comet@aerith.net). All rights reserved.